Regional Weather Roundup
Issued by NWS

Home | Current Version | Previous Version | Text Only | Print | Product List | Glossary On
Versions: 1 2 3 4 5 6 7 8 9 10 11 12 13 14 15 16 17 18 19 20 21 22 23 24 25 26 27 28 29 30 31 32 33 34 35 36 37 38 39 40 41 42 43 44 45 46 47 48 49 50
000
ASUS43 KMKX 281921
RWRWI

WISCONSIN REGIONAL WEATHER ROUNDUP
NATIONAL WEATHER SERVICE MILWAUKEE/SULLIVAN WI
200 PM CDT FRI JUL 28 2017

NOTE: "FAIR" INDICATES FEW OR NO CLOUDS BELOW 12,000 FEET WITH NO
SIGNIFICANT WEATHER AND/OR OBSTRUCTIONS TO VISIBILITY.

WIZ001-002-006>008-014>016-023>028-282000-
NORTHWEST WISCONSIN

CITY           SKY/WX    TMP DP  RH WIND       PRES   REMARKS
SUPERIOR ARPT  NOT AVBL
ASHLAND        SUNNY     78  64  61 N9        30.13S HX  80
HAYWARD        SUNNY     79  53  40 NE5       30.13F
SIREN          SUNNY     81  54  39 NE7       30.11S HX  80
CUMBERLAND     SUNNY     77  52  41 NE10      30.12F
RICE LAKE      SUNNY     81  49  33 N10G17    30.13S HX  80
CHETEK         SUNNY     80  53  40 E6        30.11F HX  80
LADYSMITH      SUNNY     80  50  35 N6        30.14F
EAU CLAIRE     SUNNY     80  50  34 NE7       30.09F HX  80
MENOMONIE      SUNNY     80  47  31 NE7       30.10F
NEW RICHMOND   SUNNY     81  54  40 E7        30.11S HX  80
OSCEOLA        SUNNY     81  55  40 E7        30.13S HX  81
$$

WIZ003>005-009-010-017-018-282000-
NORTH CENTRAL WISCONSIN

CITY           SKY/WX    TMP DP  RH WIND       PRES   REMARKS
MANITOWISH WTR MOSUNNY   76  51  40 NE8       30.14S
ARBOR VITAE    SUNNY     77  50  38 NE5       30.13F
WOODRUFF       SUNNY     77  50  38 NE5       30.13F
RHINELANDER    SUNNY     78  49  35 VRB6      30.14S
EAGLE RIVER    MOSUNNY   74  47  37 E5        30.13F
LAND O LAKES   MOSUNNY   78  46  32 NE7       30.15S
PHILLIPS       SUNNY     76  51  40 NE5       30.13F
TOMAHAWK         N/A     76  49  38 CALM      30.13S
MEDFORD        SUNNY     77  52  41 N8        30.12S
MERRILL        SUNNY     79  55  44 N5        30.12S
$$

WIZ029-030-035-036-043>047-282000-
CENTRAL WISCONSIN

CITY           SKY/WX    TMP DP  RH WIND       PRES   REMARKS
WAUSAU         SUNNY     78  51  38 VRB5      30.09F
MOSINEE        MOSUNNY   77  54  44 NE8       30.11F
MARSHFIELD     SUNNY     78  53  41 E9        30.10F
STEVENS POINT  MOSUNNY   77  54  44 N7        30.10S
WAUPACA        SUNNY     82  55  40 NE8       30.09S HX  81
WAUTOMA        MOSUNNY   78  58  49 E7G16     30.08
WISC RAPIDS    MOSUNNY   81  54  39 NE12G18   30.10S HX  81
CAMP DOUGLAS   MOSUNNY   79  55  44 NE13      30.07F
$$

WIZ011>013-019>022-031-037>040-048>050-282000-
NORTHEAST WISCONSIN

CITY           SKY/WX    TMP DP  RH WIND       PRES   REMARKS
ANTIGO         SUNNY     76  54  46 NE8       30.13S
SHAWANO        MOSUNNY   81  57  44 E8        30.09S HX  81
OCONTO         SUNNY     76  59  55 E9        30.09S
STURGEON BAY     N/A     73  63  70 N14       30.09F
GREEN BAY      SUNNY     76  64  66 NE15G24   30.08F
MANITOWOC      SUNNY     74  57  55 NE9       30.08S
APPLETON       PTSUNNY   75  55  50 NE9       30.07F
CLINTONVILLE   MOSUNNY  N/A N/A N/A E10       30.09S
OSHKOSH        SUNNY     76  62  62 NE12      30.07S
$$

WIZ032>034-041-042-053>061-282000-
SOUTHWEST WISCONSIN

CITY           SKY/WX    TMP DP  RH WIND       PRES   REMARKS
LA CROSSE      SUNNY     83  54  36 NE6       30.06F HX  82
SPARTA         SUNNY     79  49  34 NE9       30.08F
VIROQUA        SUNNY     77  58  51 NE9       30.09S
BOSCOBEL       SUNNY     82  52  35 N12       30.05F HX  81
PRAIRIE DU CHI SUNNY     80  55  42 N9        30.05S HX  80
PLATTEVILLE    SUNNY     77  54  43 N15       30.06S
$$

WIZ056-057-062-063-064-067-068-282000-
SOUTH CENTRAL WISCONSIN

CITY           SKY/WX    TMP DP  RH WIND       PRES   REMARKS
REEDSBURG      MOSUNNY   77  58  51 N9        30.06F
BARABOO/DELLS  SUNNY     78  52  40 NE9G17    30.07S
LONE ROCK      SUNNY     79  56  45 N9        30.05F HX  80
MINERAL POINT  SUNNY     79  54  41 N10G16    30.07S
MADISON        MOSUNNY   77  57  50 NE12G22   30.05F
MIDDLETON      SUNNY     78  56  46 NE9G18    30.06F
WATERTOWN      MOSUNNY   77  63  62 NE9       30.05S
MONROE         SUNNY     73  55  53 N14G21    30.05F
JANESVILLE     MOSUNNY   77  55  47 NE8       30.04S
$$

WIZ051-052-058>065-066-070>072-282000-
SOUTHEAST WISCONSIN

CITY           SKY/WX    TMP DP  RH WIND       PRES   REMARKS
MILWAUKEE      MOSUNNY   74  65  73 N13       30.05S
WAUKESHA       MOSUNNY   73  57  56 NE12G17   30.07R
MILWAUKEE/TIMM MOSUNNY   75  55  50 NE12      30.06F
RACINE         MOSUNNY   73  65  75 N14       30.06F
KENOSHA        MOSUNNY   76  63  64 NE14      30.05R
FOND DU LAC    SUNNY     78  61  55 NE12      30.07F HX  80
SHEBOYGAN      SUNNY     75  64  68 NE12      30.07S
WEST BEND      MOSUNNY   73  59  60 E8        30.07S
JUNEAU         MOSUNNY   74  61  63 N8        30.07F
$$

LSZ147-162-282000-
LAKE SUPERIOR

STATION/POSITION TIME  TEMP    WIND        PRES    WAVE
                       AIR SEA DIR/SP/G            HT/PER
                 (UTC) (F)     (DEG/KT/KT) (MB)    (FT/S)
W MID LAKE BUOY  1850   61 59  170/  4/  4 1020.4F   0
DEVILS ISLAND    1900   68     110/  5/  7 1020.1F
SAXON HARBOR     1830   72      50/  6/  7 1020.0S
$$

LMZ867-665-643>646-282000-
LAKE MICHIGAN

STATION/POSITION TIME  TEMP    WIND        PRES    WAVE
                       AIR SEA DIR/SP/G            HT/PER
                 (UTC) (F)     (DEG/KT/KT) (MB)    (FT/S)
CHAMBERS ISLAND  1840   69      20/ 11/ 13 1018.6S
S GREEN BAY BUOY 1900   70 72   40/ 14/ 17 1018.8
N MID LAKE BUOY  1850   67 67   40/  8/ 10 1019.7R   2/ 4
NORTHPORT PIER   1840   68      70/  9/ 11 1019.3R
KEWAUNEE LAKESHO 1854   71      30/  6/ 11 1018.1R
SHEBOYGAN LAKESH 1900   68      20/ 14/ 16 1017.8S
PORT WASHINGTON  1830   71      50/ 11/ 13 1018.6S
MILWAUKEE LAKESH 1900   68      30/ 15/ 17   N/A
S MID LAKE BUOY  1850   69 71  360/ 16/ 17 1016.2F   2/ 5
KENOSHA   LAKESH 1900   68      20/ 18/ 21 1016.9
$$

TC  - TEMPERATURE IN CELSIUS
VSB - VISIBILITY IN STATUTE MILES
WCI - WIND CHILL INDEX
HX  - HEAT INDEX





USA.gov is the U.S. government's official web portal to all federal, state and local government web resources and services.